Location: Bletchingley
(51.2333°N, 0.1000°W)
Time: 12:35:38
(UTC+00:00)

Meteor 2-5 Rocket - Pass Details

Date: 18 September 2020
Orbit: 833 x 912 km, 81.2° (Epoch: 21 October)

Event Time Altitude Azimuth Distance (km) Brightness Sun altitude
Rises 20:19:59 0° 347° (NNW) 3,412 7.5 -20.6°
Reaches altitude 10° 20:22:24 10° 348° (NNW) 2,481 6.7 -20.9°
Maximum altitude 20:28:02 88° 76° (ENE) 865 3.6 -21.7°
Enters shadow 20:30:31 36° 167° (SSE) 1,346 4.4 -22.0°
